Location: San Antonio
(29.4240°N, 98.4930°W)
Time: 14:38:00
(UTC-05:00)

BlueWalker 3 - Pass Details

Date: 20 June 2024
Orbit: 480 x 492 km, 53.2° (Epoch: 11 July)

Event Time Altitude Azimuth Distance (km) Brightness Sun altitude
Rises 05:14:05 0° 327° (NNW) 2,533 5.6 -15.5°
Reaches altitude 10° 05:16:22 10° 336° (NNW) 1,653 4.7 -15.1°
Maximum altitude 05:19:50 37° 44° (NE) 762 3.5 -14.5°
Drops below altitude 10° 05:23:19 10° 114° (ESE) 1,652 4.9 -13.9°
Sets 05:25:36 0° 122° (ESE) 2,531 5.8 -13.5°
